Location: Chemnitz
(49.5500°N, 11.5830°E)
Time: 19:07:36
(UTC+01:00)

ISS - Pass Details

Date: 10 February 2018
Orbit: 402 x 407 km, 51.6° (Epoch: 25 February)

Event Time Altitude Azimuth Distance (km) Brightness Sun altitude
Rises 18:39:48 0° 288° (WNW) 2,321 1.3 -12.7°
Reaches altitude 10° 18:41:58 10° 280° (W) 1,460 0.3 -13.0°
Maximum altitude 18:45:01 36° 211° (SSW) 651 -2.5 -13.5°
Enters shadow 18:47:56 11° 144° (SE) 1,410 -1.4 -14.0°
